[[{"header":{"parameterUnit":"m.s-1","parameterCategory":1,"la1":30.2991,"la2":30.254,"lo1":-89.0895,"lo2":-89.0444,"dy":0.0017,"dx":0.0017,"nx":28,"ny":28,"refTime":"2024-08-05T09:00:00:Z","depth":0,"parameterNumber":2,"parameterNumberName":"U-component_of_WINDS"},"data":[0,0,0,0,0,0,0,0,0,0,0,0,0,0,0,0,0,0,0,0,0,0,0,0,0,0,0,0,0,0,0,0,0,0,0,0,0,0,0,0,0,0,0,0,0,0,0,0,0,0,0,0,0,0,0,0,0,0,2.064,2.0641,0,2.0713,2.0714,2.0715,2.0672,2.067,2.0668,2.0666,2.0752,2.0756,2.076,0,0,0,0,0,0,0,0,0,0,0,0,0,2.0474,2.0477,2.064,2.0641,2.0642,2.0713,2.0714,2.0715,2.0673,2.067,2.0667,2.0665,2.075,2.0755,2.0761,0,0,0,0,0,0,0,0,0,0,0,0,0,2.0547,2.0478,2.064,2.0629,2.0628,2.0713,2.0714,2.0716,2.0673,2.067,2.0667,2.0664,2.0749,2.0755,2.0761,2.0864,0,0,2.0781,2.0783,0,0,0,0,0,0,0,0,2.0543,2.0553,2.0629,2.063,2.0629,2.068,2.0687,2.0766,2.0674,2.0657,2.0666,2.0662,2.0731,2.0739,2.076,2.0868,2.0872,2.0781,2.0785,2.0788,2.079,0,0,0,0,0,0,0,2.0538,2.055,2.0669,2.0631,2.0631,2.0624,2.0631,2.0702,2.0711,2.0658,2.0655,2.0663,2.0731,2.0754,2.0762,2.0873,2.0781,2.0787,2.0791,2.0793,2.1074,2.1077,0,0,0,0,0,0,2.0532,2.0546,2.0667,2.0671,2.0577,2.063,2.0637,2.0667,2.071,2.0713,2.0666,2.0661,2.0745,2.0754,2.0765,2.089,2.0788,2.0794,2.0798,2.107,2.1074,2.1078,0,0,0,0,0,0,2.0529,2.0543,2.0664,2.0608,2.0623,2.0636,2.067,2.067,2.0693,2.0716,2.0719,2.0687,2.0742,2.0756,2.084,2.0892,2.0797,2.0803,2.1066,2.1071,2.1076,2.1141,0,0,0,0,0,0,2.0524,2.0542,2.0578,2.0609,2.0626,2.0734,2.0673,2.0674,2.0703,2.0697,2.0737,2.074,2.0741,2.083,2.0846,2.0899,2.0807,2.1061,2.1068,2.1075,2.1134,2.1147,2.1159,0,0,0,0,0,2.0518,2.0595,2.058,2.0595,2.0671,2.0737,2.0748,2.0743,2.0707,2.0746,2.0762,2.0739,2.0884,2.0839,2.0857,2.0913,2.1058,2.1066,2.1074,2.1128,2.1145,2.1159,0,0,0,0,0,0,2.0574,2.0599,2.0583,2.0671,2.0702,2.073,2.0778,2.0761,2.0805,2.0799,2.0795,2.0804,2.0893,2.0911,2.0861,2.1017,2.0966,2.0978,2.1001,2.1017,2.1029,2.1024,2.0813,0,0,0,0,0,2.0595,2.0644,2.0665,2.0741,2.0757,2.0765,2.0794,2.0788,2.0822,2.0836,2.0857,2.0893,2.0947,2.0983,2.1034,2.1136,2.1146,2.1184,2.1196,2.1207,2.1218,2.1277,2.1295,2.1105,2.1105,2.1105,0,0,2.0643,2.0662,2.0694,2.0753,2.0776,2.083,2.0777,2.0836,2.0877,2.0846,2.0926,2.0943,2.0984,2.1079,2.1122,2.1097,2.1272,2.1217,2.1225,2.1231,2.1287,2.1305,2.1321,2.1111,2.111,2.1109,0,0,2.0756,2.0774,2.084,2.0865,2.09,2.0905,2.0921,2.0952,2.0962,2.1042,2.102,2.1072,2.1163,2.1194,2.1222,2.135,2.1333,2.1367,2.1434,2.1492,2.1507,2.152,2.1568,2.1585,2.1377,2.1378,2.1378,0,2.081,2.0887,2.0878,2.0939,2.0967,2.0938,2.1008,2.1034,2.1085,2.1108,2.1078,2.1195,2.122,2.1323,2.1354,2.1377,2.1399,2.1363,2.1504,2.1518,2.153,2.1576,2.1594,2.1382,2.1381,2.1381,2.138,0,2.0955,2.1009,2.1059,2.1107,2.1141,2.1206,2.121,2.1247,2.1239,2.1249,2.1333,2.1363,2.142,2.1444,2.1437,2.1547,2.1531,2.1503,2.1453,2.1552,2.1596,2.1613,2.1387,2.1386,2.1385,2.1384,0,0,2.1104,2.1146,2.1165,2.1187,2.1225,2.1269,2.1335,2.1388,2.1421,2.1459,2.1517,2.1596,2.1571,2.1603,2.16,2.1651,2.1754,2.1617,2.1618,2.1644,2.1881,2.1903,2.1923,2.1742,2.1745,2.1748,2.1878,0,2.1222,2.1333,2.1327,2.1433,2.1486,2.146,2.1519,2.1551,2.1562,2.1612,2.1626,2.1683,2.1644,2.1664,2.1712,2.1731,2.1802,2.1721,2.18,2.1803,2.1792,2.1945,2.1968,2.209,2.1895,2.1898,2.19,0,2.1373,2.1413,2.1523,2.1555,2.1577,2.1629,2.1679,2.1725,2.1763,2.1768,2.1804,2.1794,2.1866,2.1812,2.1913,2.1859,2.1891,2.1906,2.191,2.1919,2.1859,2.1961,2.2128,2.2147,2.1926,2.1924,2.1922,0,2.1474,2.1556,2.1633,2.1653,2.1692,2.1729,2.1748,2.1782,2.1815,2.1861,2.1883,2.1937,2.1967,2.2012,2.2018,2.1978,2.2122,2.2067,2.2132,2.2132,2.2164,2.2162,2.2341,2.2182,2.2181,2.2181,2.2181,0,2.1607,2.1676,2.1679,2.1727,2.1806,2.1801,2.188,2.1896,2.1927,2.198,2.1963,2.2015,2.2019,2.2074,2.208,2.2165,2.2178,2.2188,2.2189,2.219,2.2189,2.2213,2.2205,2.2186,2.2185,2.2184,2.2183,0,2.1734,2.1738,2.1821,2.185,2.186,2.1917,2.1944,2.1992,2.2002,2.2071,2.2087,2.2104,2.2168,2.2178,2.2254,2.2258,2.2361,2.2352,2.2347,2.2347,2.2411,2.2406,2.2613,2.2641,2.2461,2.2463,2.2464,0,2.1819,2.1871,2.1906,2.1939,2.1959,2.2013,2.2046,2.2045,2.2081,2.2129,2.2173,2.2234,2.2283,2.2386,2.2409,2.2467,2.2462,2.253,2.2471,2.2471,2.2466,2.2464,2.2471,2.2542,2.2544,2.2546,2.2547,0,2.197,2.197,2.2017,2.2066,2.2105,2.2145,2.2182,2.2211,2.2215,2.2258,2.2321,2.2359,2.2435,2.2498,2.2556,2.258,2.2567,2.2566,2.2584,2.2587,2.2583,2.2589,2.2381,2.2561,2.256,2.2559,2.2558,2.2558,2.208,2.2127,2.2159,2.2213,2.224,2.2276,2.2323,2.2338,2.239,2.2449,2.2447,2.2517,2.2558,2.2634,2.2662,2.2721,2.2699,2.2725,2.2732,2.2739,2.2746,2.2572,2.2731,2.2731,2.273,2.273,2.273,0,2.2233,2.2253,2.2302,2.2353,2.2397,2.2376,2.2417,2.2456,2.2517,2.2554,2.2602,2.2677,2.2738,2.2765,2.2826,2.2868,2.2864,2.2885,2.2883,2.289,2.2761,2.274,2.2888,2.2888,2.2888,2.2887,2.2887,2.2887,2.2318,2.2396,2.24,2.2494,2.2514,2.258,2.2606,2.264,2.267,2.2753,2.2802,2.2818,2.2853,2.2917,2.2974,2.298,2.3005,2.303,2.3034,2.2914,2.2898,2.2883,2.2863,2.3035,2.3035,2.3158,2.3159,2.316]},{"header":{"parameterUnit":"m.s-1","parameterCategory":1,"la1":30.2991,"la2":30.254,"lo1":-89.0895,"lo2":-89.0444,"dy":0.0017,"dx":0.0017,"nx":28,"ny":28,"refTime":"2024-08-05T09:00:00:Z","depth":0,"parameterNumber":3,"parameterNumberName":"V-component_of_WINDS"},"data":[0,0,0,0,0,0,0,0,0,0,0,0,0,0,0,0,0,0,0,0,0,0,0,0,0,0,0,0,0,0,0,0,0,0,0,0,0,0,0,0,0,0,0,0,0,0,0,0,0,0,0,0,0,0,0,0,0,0,0.561,0.5614,0,0.5948,0.5952,0.5956,0.6012,0.6009,0.6006,0.6003,0.6358,0.637,0.6382,0,0,0,0,0,0,0,0,0,0,0,0,0,0.5019,0.5029,0.561,0.5614,0.5618,0.5948,0.5953,0.5957,0.6013,0.6009,0.6005,0.6002,0.6354,0.6368,0.6383,0,0,0,0,0,0,0,0,0,0,0,0,0,0.5308,0.5033,0.5609,0.5686,0.5696,0.5947,0.5953,0.5958,0.6013,0.6009,0.6004,0.6,0.6349,0.6367,0.6385,0.6586,0,0,0.6441,0.6449,0,0,0,0,0,0,0,0,0.5292,0.533,0.567,0.5681,0.5693,0.5933,0.5874,0.6169,0.6014,0.5893,0.6003,0.5998,0.6221,0.6249,0.6323,0.6603,0.6618,0.6442,0.6454,0.6461,0.6467,0,0,0,0,0,0,0,0.5272,0.5316,0.5744,0.5675,0.5689,0.5705,0.5741,0.593,0.6078,0.5903,0.5908,0.5947,0.6226,0.6305,0.6332,0.6623,0.6442,0.6458,0.6469,0.6477,0.7085,0.709,0,0,0,0,0,0,0.5237,0.5299,0.5733,0.5754,0.5477,0.5719,0.576,0.5861,0.6076,0.6104,0.595,0.5948,0.6276,0.631,0.6344,0.6594,0.6461,0.6478,0.6489,0.708,0.7086,0.7092,0,0,0,0,0,0,0.5224,0.5275,0.572,0.5528,0.5586,0.5734,0.5847,0.587,0.5949,0.6111,0.6139,0.6003,0.6274,0.6319,0.6525,0.6607,0.6487,0.6503,0.7074,0.7082,0.7089,0.7096,0,0,0,0,0,0,0.5207,0.527,0.5347,0.5529,0.5596,0.5893,0.5852,0.5879,0.5979,0.5979,0.6168,0.6196,0.6274,0.6497,0.6543,0.663,0.6518,0.7067,0.7078,0.7087,0.7089,0.7103,0.7114,0,0,0,0,0,0.5185,0.5337,0.535,0.5402,0.5694,0.5898,0.5936,0.6021,0.5985,0.6065,0.6169,0.619,0.659,0.6518,0.657,0.6664,0.7063,0.7075,0.7086,0.7083,0.71,0.7114,0,0,0,0,0,0,0.5164,0.5362,0.5379,0.5594,0.5728,0.5906,0.6009,0.6036,0.6185,0.618,0.6281,0.6323,0.6525,0.6615,0.6531,0.687,0.6824,0.6847,0.6804,0.6821,0.6834,0.6809,0.6533,0,0,0,0,0,0.5183,0.5329,0.5496,0.5669,0.5735,0.586,0.5952,0.6005,0.615,0.6208,0.6327,0.6469,0.6626,0.6729,0.6883,0.7101,0.7144,0.7191,0.7204,0.7214,0.7233,0.7355,0.7379,0.713,0.713,0.713,0,0,0.5227,0.5353,0.544,0.5668,0.5778,0.593,0.5908,0.6069,0.6183,0.6233,0.6435,0.6527,0.6692,0.6905,0.7005,0.6986,0.731,0.7229,0.7235,0.725,0.737,0.7393,0.7414,0.7138,0.7137,0.7136,0,0,0.5383,0.5492,0.5649,0.5758,0.5924,0.6006,0.6043,0.6218,0.628,0.6483,0.6524,0.6661,0.6931,0.7046,0.714,0.7337,0.7362,0.7385,0.7453,0.7571,0.7591,0.7609,0.768,0.7704,0.7403,0.7403,0.7403,0,0.5417,0.5644,0.5726,0.5886,0.5985,0.6033,0.6194,0.6297,0.6506,0.6575,0.655,0.6888,0.7002,0.7243,0.729,0.7365,0.7412,0.7365,0.7581,0.7599,0.7617,0.7687,0.7713,0.7404,0.7404,0.7404,0.7404,0,0.5678,0.5834,0.5941,0.6138,0.625,0.6409,0.6517,0.662,0.6663,0.6748,0.6954,0.7092,0.7275,0.7335,0.738,0.7583,0.7566,0.756,0.7516,0.7641,0.7708,0.7735,0.7407,0.7406,0.7406,0.7405,0,0,0.5833,0.6071,0.6109,0.6199,0.6384,0.6508,0.6669,0.6845,0.6932,0.7074,0.7213,0.7438,0.7433,0.7539,0.7597,0.77,0.7848,0.7682,0.7687,0.7709,0.8081,0.8086,0.8115,0.7864,0.7869,0.7874,0.8067,0,0.6012,0.6298,0.6376,0.662,0.6767,0.6813,0.6954,0.7084,0.7166,0.7305,0.7397,0.7555,0.7536,0.76,0.7704,0.7808,0.7924,0.7795,0.7997,0.8003,0.7956,0.815,0.8156,0.8332,0.8094,0.8098,0.8102,0,0.626,0.6403,0.6661,0.6826,0.689,0.7015,0.7182,0.7312,0.7461,0.7514,0.7631,0.7679,0.785,0.7794,0.8033,0.7943,0.803,0.8093,0.8102,0.8126,0.8062,0.8181,0.8391,0.8418,0.8143,0.814,0.8137,0,0.6349,0.6606,0.6794,0.6869,0.7066,0.7153,0.7239,0.7383,0.7483,0.7629,0.7696,0.786,0.7952,0.8079,0.817,0.8121,0.8401,0.8353,0.8452,0.845,0.8512,0.8507,0.874,0.8564,0.8563,0.8563,0.8562,0,0.6542,0.6699,0.6836,0.6951,0.7128,0.7216,0.7389,0.7478,0.7604,0.7739,0.779,0.7916,0.8027,0.8169,0.8241,0.8428,0.8469,0.8518,0.8536,0.8515,0.8509,0.8575,0.8566,0.857,0.8568,0.8567,0.8566,0,0.6673,0.6771,0.6978,0.7146,0.7192,0.7315,0.746,0.7575,0.7657,0.7828,0.7873,0.8004,0.8173,0.8275,0.849,0.8539,0.8745,0.8757,0.8694,0.8703,0.8797,0.8787,0.9083,0.9126,0.8918,0.892,0.8922,0,0.6791,0.6911,0.7091,0.7184,0.7271,0.7419,0.7521,0.7612,0.7716,0.7893,0.7987,0.8157,0.83,0.8567,0.8683,0.8847,0.8865,0.8957,0.8891,0.8865,0.8869,0.8861,0.8874,0.8969,0.8971,0.8973,0.8974,0,0.699,0.7032,0.7175,0.7335,0.7454,0.7585,0.7716,0.779,0.7903,0.8018,0.8189,0.8299,0.8516,0.8686,0.886,0.8951,0.8983,0.8993,0.9025,0.9006,0.8965,0.899,0.8727,0.8987,0.8985,0.8985,0.8984,0.8983,0.712,0.7229,0.7372,0.753,0.7637,0.7758,0.7873,0.7969,0.8113,0.8295,0.834,0.852,0.8665,0.8901,0.8996,0.9139,0.9126,0.9172,0.9184,0.9194,0.9197,0.8939,0.9171,0.9171,0.9171,0.9171,0.917,0,0.7324,0.7417,0.7561,0.7741,0.7865,0.7879,0.8024,0.8128,0.8285,0.8416,0.8553,0.875,0.8914,0.9042,0.9211,0.9301,0.932,0.9343,0.9338,0.9359,0.9199,0.9155,0.9325,0.9324,0.9324,0.9324,0.9324,0.9324,0.7444,0.763,0.7688,0.7927,0.8021,0.8196,0.8277,0.8389,0.8494,0.8711,0.8846,0.8927,0.9057,0.9235,0.9387,0.942,0.9481,0.9502,0.9538,0.9387,0.937,0.9354,0.9314,0.9514,0.9514,0.9687,0.9688,0.9689]}]]